GEFSNGP_500_meanwind_156.txt.gz
Wind_Speed
25 25 26 25 24 24 23 21 19 17 16 15 14 14 14 13 12 11 11 10 9 9 9 9 8 8 8 7 8 8 8 8 9 11 11 14 15 17 18 19 20 22 22 22
27 26 26 26 25 24 23 22 20 18 17 16 15 15 13 12 12 12 11 10 9 9 10 9 8 8 8 8 8 8 8 9 10 10 12 14 15 16 17 18 19 21 22 22
28 28 27 28 26 25 24 23 21 19 17 16 15 15 14 13 13 13 12 11 11 11 11 11 10 10 10 9 8 9 8 8 9 10 11 12 13 14 15 18 19 21 22 23
28 29 31 28 27 26 25 23 21 20 19 17 16 15 14 14 14 14 14 14 13 12 12 12 12 12 11 10 9 8 8 8 8 9 10 11 11 13 14 15 17 19 20 21
31 31 31 29 28 27 25 24 23 21 20 19 18 17 16 16 15 14 14 14 14 13 13 13 13 12 11 10 10 10 10 9 9 9 10 10 11 12 13 14 16 18 19 20
33 32 32 29 27 26 25 24 23 22 21 20 19 19 18 17 17 16 15 15 15 15 14 14 14 13 12 11 11 11 12 11 11 12 12 12 12 13 14 15 16 18 19 20
33 33 31 29 28 27 26 24 23 22 21 20 20 19 18 18 17 17 16 16 16 15 15 14 13 13 13 13 13 12 13 13 14 14 14 14 14 15 15 17 18 19 20 21
33 33 31 28 29 28 27 25 24 22 22 21 21 20 20 19 18 17 17 17 16 16 16 16 15 14 14 14 15 15 15 15 15 15 15 16 16 16 17 17 18 19 21 23
31 31 29 28 28 27 26 25 24 23 22 21 22 21 21 20 19 19 19 19 19 18 17 17 17 16 16 16 16 17 17 17 17 17 17 17 17 18 18 18 19 20 21 22
31 30 28 27 27 26 24 23 23 23 22 21 21 22 22 20 20 20 20 19 18 18 17 17 17 17 17 18 18 17 18 18 18 18 18 18 18 19 19 19 20 21 21 21
31 30 28 27 27 26 25 24 24 23 23 22 21 21 22 21 20 20 19 19 19 18 17 17 17 17 17 18 17 17 18 19 18 18 18 19 20 21 21 22 22 22 22 23
28 29 28 26 26 25 25 24 24 23 22 22 21 22 21 20 20 20 19 18 18 18 18 18 18 18 17 17 18 18 18 18 19 19 19 20 21 21 21 22 22 23 24 24
25 26 25 24 24 24 24 23 22 21 21 21 21 20 19 19 18 18 18 17 17 17 18 17 17 17 16 17 17 18 18 18 18 19 20 21 21 22 22 23 23 24 25 25
23 23 23 22 22 23 23 22 21 21 21 21 20 19 18 17 17 18 17 16 16 16 16 16 15 15 16 16 17 17 17 17 18 18 19 20 21 22 22 23 23 24 24 25
22 22 22 22 21 21 22 21 21 20 20 19 19 18 18 17 17 17 17 16 16 16 15 15 15 15 16 16 16 17 17 17 18 19 20 21 22 23 23 24 24 25 26 26
22 21 21 21 20 20 19 19 19 19 19 18 18 18 18 17 16 16 16 15 15 15 15 16 15 15 15 16 16 16 17 17 18 18 19 20 21 22 23 23 24 25 26 28
20 20 20 20 20 19 18 17 16 17 17 17 17 17 17 17 16 16 15 15 15 15 15 15 15 15 15 16 16 16 16 17 17 17 18 18 19 20 22 23 25 26 27 29
18 19 20 19 18 17 17 16 15 15 15 16 16 17 16 16 16 15 15 15 14 14 14 14 14 14 14 15 16 16 16 16 16 17 18 20 21 22 23 24 25 27 28 29
19 19 19 18 18 17 17 16 15 15 15 14 15 15 15 15 15 15 15 15 14 14 13 13 13 14 14 15 15 16 17 17 18 19 20 21 22 23 25 26 28 29 30 32
19 18 18 18 18 18 17 16 15 15 14 14 14 14 14 14 13 13 14 14 13 13 13 13 13 14 15 15 16 17 18 19 20 21 22 23 25 26 28 29 31 32 33 35
17 17 17 17 18 18 17 16 15 15 14 14 14 14 13 13 13 13 13 13 13 13 13 14 15 15 16 17 18 19 20 21 22 23 24 26 28 29 30 32 33 34 35 37
16 16 16 16 16 16 15 15 14 14 13 13 13 12 12 12 13 13 13 13 13 14 14 15 16 17 18 19 19 20 21 23 24 26 27 29 30 31 33 34 35 36 37 38
17 17 16 15 15 14 14 14 14 13 13 12 12 12 12 12 12 12 13 13 14 15 15 16 17 18 19 20 21 22 24 25 26 28 29 30 32 33 34 35 36 37 38 39
16 16 15 15 15 14 14 13 13 13 12 12 11 11 11 12 12 13 13 14 15 16 17 18 19 20 21 23 24 25 26 27 29 30 31 32 33 34 35 36 37 37 38 38
16 16 15 14 13 13 12 12 11 11 12 12 12 12 12 13 13 14 15 16 16 17 19 20 21 23 24 25 26 27 28 29 30 31 32 33 34 35 35 35 36 36 36 35
15 15 15 14 14 13 12 11 11 11 12 12 13 13 14 15 15 16 16 17 18 19 21 22 23 25 25 26 27 28 29 30 31 32 33 33 33 33 33 33 33 33 32 31
15 15 15 14 13 13 12 12 12 13 13 13 14 15 15 15 16 17 18 19 20 21 22 23 24 25 26 27 28 29 30 31 31 32 32 32 32 32 32 31 31 30 29 28

GEFSNGP_500_meanwind_162.txt.gz
Wind_Speed
26 25 24 23 24 24 23 21 19 17 17 17 16 15 15 14 13 12 12 13 13 13 13 12 11 10 10 10 10 11 12 13 14 14 14 15 15 15 16 17 17 19 20 21
27 26 25 24 24 24 23 23 21 19 18 17 16 15 15 15 14 13 13 13 13 13 13 13 12 11 11 10 10 10 11 12 12 13 13 14 14 14 15 16 17 18 19 19
25 25 25 25 25 24 23 23 22 20 19 17 17 16 16 16 15 15 14 14 14 14 13 12 12 12 12 11 11 11 11 10 11 11 12 13 13 14 14 15 16 17 18 19
25 26 25 25 25 24 24 23 22 22 20 18 18 17 16 16 16 15 15 14 14 14 13 13 12 12 13 13 12 12 12 12 12 12 12 12 13 13 13 14 15 16 17 18
27 26 26 26 25 24 24 24 23 22 21 19 18 17 17 16 16 15 15 15 15 14 14 14 13 13 13 14 14 13 13 12 12 13 12 12 12 12 13 13 14 15 16 18
28 27 26 26 25 25 25 25 24 22 21 20 20 19 18 17 17 16 15 16 15 15 14 14 14 13 13 13 13 13 13 12 12 12 12 12 12 12 13 13 13 14 16 17
29 28 27 27 24 25 27 26 24 23 22 21 21 20 19 19 18 18 17 16 17 16 16 17 16 15 14 14 14 13 13 13 13 13 13 13 13 13 14 14 14 15 15 16
30 29 29 26 25 26 27 26 25 24 24 23 22 21 20 19 19 19 18 18 17 17 17 17 17 16 15 15 15 15 14 15 15 14 14 15 15 15 15 16 16 16 17 18
32 31 29 27 26 25 25 26 26 25 25 24 23 22 21 20 19 19 19 18 18 18 18 18 17 17 17 16 15 15 16 16 16 16 16 16 16 17 17 17 18 18 19 19
30 30 30 29 28 27 27 27 27 26 25 24 24 23 22 22 21 20 20 19 20 20 19 19 19 18 18 17 17 17 16 16 16 17 17 17 17 18 18 19 19 20 21 22
29 29 30 30 28 27 28 28 27 26 26 25 24 24 23 23 22 21 22 21 21 21 21 20 19 19 19 18 17 17 17 17 17 17 18 18 19 19 19 19 19 20 21 22
29 29 29 29 29 27 27 27 27 26 25 25 24 22 22 22 22 22 22 22 21 21 21 20 19 19 19 18 18 18 17 17 18 18 19 19 20 20 20 20 20 21 22 22
28 29 29 29 28 27 26 27 27 26 25 25 24 22 22 22 22 22 22 21 21 20 20 19 19 19 19 18 18 17 18 18 18 19 20 20 19 20 20 20 21 22 22 23
27 28 28 28 28 27 27 26 26 25 25 24 24 23 22 22 21 21 21 21 21 20 19 19 19 18 18 18 18 18 18 18 19 19 19 19 20 21 21 21 21 22 23 23
26 27 27 27 27 27 26 25 24 24 23 23 23 22 22 21 21 21 20 21 20 20 20 20 19 18 18 18 17 17 18 18 19 19 19 19 19 20 20 21 21 22 24 24
25 25 26 26 26 26 26 25 24 23 22 22 22 22 21 20 20 19 19 19 19 18 18 18 18 17 17 18 18 18 18 18 18 19 19 19 19 20 20 21 22 23 24 25
24 24 25 26 25 25 25 24 23 22 21 21 20 20 20 19 19 18 18 18 18 18 17 17 17 17 17 17 18 18 18 18 18 18 18 18 18 19 21 22 23 23 24 25
25 26 26 25 25 25 23 22 21 21 21 21 20 20 20 19 18 18 18 18 17 17 17 17 16 16 17 17 17 16 16 16 17 17 18 19 20 20 21 22 24 25 27 28
25 26 26 26 25 24 22 20 20 20 19 18 18 18 18 18 18 18 17 17 16 15 16 16 16 15 15 15 16 16 16 17 17 17 18 19 20 21 23 24 26 27 28 29
24 25 24 24 24 23 21 20 19 19 19 19 18 17 17 17 17 16 16 15 16 16 15 14 14 15 15 15 15 16 17 17 18 18 20 21 22 23 25 26 28 29 30 31
22 22 22 23 22 21 19 19 18 17 17 17 16 16 16 16 16 15 16 16 15 15 15 14 14 15 15 16 16 17 18 18 19 20 22 23 24 25 26 27 28 30 31 32
22 22 21 21 20 20 18 18 16 15 14 15 15 14 14 14 14 14 14 14 14 14 14 14 14 15 16 16 17 18 19 20 21 22 23 24 25 26 27 29 30 31 32 33
20 21 21 20 20 18 17 16 15 14 14 13 13 13 13 14 13 13 12 13 13 13 13 13 14 15 16 17 18 19 20 21 22 23 24 25 27 28 29 30 31 32 32 33
19 19 19 19 18 17 15 15 14 13 13 13 12 13 13 12 12 12 12 12 12 13 13 14 15 16 17 18 19 19 20 22 23 24 25 27 27 28 29 30 31 32 32 32
18 18 18 18 16 16 15 14 13 13 13 13 13 12 12 11 11 11 12 12 13 13 14 15 16 17 18 19 19 21 22 23 24 25 26 27 28 28 29 30 30 30 30 30
17 17 16 16 16 15 15 14 14 13 13 13 12 12 12 11 12 13 13 14 14 15 15 16 17 18 19 20 21 22 23 24 25 25 26 27 28 28 29 28 28 28 29 28
16 16 15 15 15 15 14 14 14 14 13 13 13 13 13 13 14 14 15 15 15 16 17 18 19 20 21 22 22 23 23 24 24 25 26 26 27 27 27 28 28 27 27 27

GEFSNGP_500_meanwind_168.txt.gz
Wind_Speed
26 22 21 21 23 25 26 26 23 21 21 22 21 19 17 17 17 16 15 15 15 15 15 15 15 15 15 15 15 15 15 16 15 15 15 16 16 16 17 17 17 18 18 18
30 25 23 22 21 24 25 25 24 23 23 23 23 21 18 17 17 17 16 15 15 15 15 15 15 14 14 14 14 14 14 14 14 14 14 15 16 17 17 17 17 17 18 18
29 26 24 25 25 25 25 26 25 26 28 26 24 23 21 19 18 18 17 16 16 16 16 15 15 15 14 14 14 13 12 13 13 14 14 14 15 15 15 15 16 16 16 17
27 27 28 25 23 24 25 27 28 28 30 26 23 22 22 20 19 18 18 18 17 17 16 15 15 14 14 14 13 12 12 12 13 13 13 14 14 15 15 15 15 15 16 17
28 27 26 25 25 25 27 28 30 31 30 27 25 23 22 22 20 20 19 19 18 17 16 15 15 15 14 14 14 14 14 13 14 14 14 14 15 15 15 15 15 15 15 16
29 27 26 26 26 27 29 30 31 32 29 27 25 25 25 23 22 21 20 19 18 17 17 16 15 15 15 14 14 14 15 15 14 14 14 14 15 15 15 15 15 15 15 15
29 29 28 27 27 27 30 32 31 28 27 26 25 25 24 24 23 22 21 20 19 18 17 17 16 16 15 15 15 15 15 15 15 15 15 15 15 15 16 16 16 15 16 16
30 31 30 30 30 30 30 29 27 26 26 26 25 24 24 24 23 22 21 20 20 19 18 18 17 17 17 17 16 16 16 16 16 16 15 15 15 16 16 16 15 16 16 16
34 34 32 30 30 29 29 27 26 26 26 26 26 26 24 23 23 22 21 21 20 20 19 19 19 19 18 18 17 17 17 17 17 16 16 16 16 16 16 16 16 17 17 18
34 34 31 30 29 27 27 26 25 26 27 26 26 24 24 24 24 23 22 21 21 20 20 19 19 19 19 19 18 18 17 17 17 17 17 17 18 17 17 17 17 18 18 19
34 33 30 30 28 27 26 26 25 26 26 26 26 26 26 25 24 23 22 22 21 20 20 20 20 19 19 19 19 18 18 18 18 18 18 18 18 18 18 18 19 19 20 20
33 32 31 29 27 27 27 27 26 26 25 25 25 25 25 25 24 23 23 22 22 21 20 20 21 21 21 20 19 19 19 18 19 19 19 18 18 18 18 18 18 19 20 20
31 31 31 30 28 27 28 28 28 27 27 26 26 26 26 25 25 24 24 23 22 22 22 22 21 21 21 21 20 20 20 19 19 19 18 18 18 18 18 19 19 20 21 22
31 30 31 31 29 28 27 27 28 28 28 27 26 26 26 26 26 25 24 23 23 22 22 21 21 21 20 20 20 20 19 19 19 19 19 19 19 19 20 21 21 22 23 23
31 30 30 30 29 28 27 26 26 27 27 27 27 27 26 25 25 25 24 23 22 21 21 20 20 20 19 19 19 20 19 19 20 20 19 19 20 20 21 21 22 22 22 23
29 29 28 28 28 27 26 25 25 25 26 26 27 26 25 25 24 23 22 21 21 20 20 20 19 19 19 19 19 20 20 20 19 19 19 20 20 21 21 21 21 22 22 23
27 27 27 26 26 26 25 26 25 25 24 24 24 24 24 23 23 22 21 21 20 20 19 19 19 19 19 19 20 20 19 19 19 19 19 20 20 21 21 21 22 23 23 24
25 25 25 25 24 24 24 25 24 23 23 23 24 23 22 22 20 20 20 19 19 19 18 18 18 18 19 19 19 18 18 18 19 19 20 20 21 22 22 22 22 24 25 26
24 23 23 23 23 23 23 23 23 23 23 22 21 21 21 21 20 20 20 19 19 18 18 17 16 16 17 17 17 16 17 17 18 19 20 20 20 20 21 22 23 25 26 27
23 23 22 22 22 22 22 21 21 21 21 21 20 20 20 19 19 18 18 18 17 16 16 16 16 16 16 16 15 15 16 17 18 18 19 20 20 21 22 23 25 26 27 29
22 23 23 21 20 21 21 21 21 20 19 19 20 19 19 18 17 16 16 16 16 16 15 15 15 15 15 16 16 17 17 18 18 19 19 20 21 22 24 25 26 28 29 30
21 22 23 23 21 21 21 20 20 20 19 19 18 18 17 17 16 15 15 15 15 15 15 15 15 16 16 16 16 17 17 18 19 19 20 21 23 24 26 27 28 29 30 31
19 20 21 22 21 20 19 19 19 18 17 17 16 15 15 15 15 15 14 13 14 13 14 15 16 16 15 16 17 17 18 19 19 20 21 23 24 26 27 28 29 29 30 31
18 19 19 19 19 18 17 17 16 15 15 15 14 14 15 15 15 14 13 13 13 13 14 15 15 16 16 17 18 18 18 19 20 21 23 24 25 26 27 28 29 30 30 31
16 16 17 17 16 16 15 14 14 13 13 13 13 13 14 13 13 12 12 12 12 13 14 14 15 15 16 17 17 18 19 20 22 23 25 26 27 27 28 28 29 30 30 30
16 16 16 15 15 14 14 13 13 12 11 11 11 11 11 11 11 12 12 12 13 13 14 14 15 16 17 18 18 20 21 22 24 25 26 27 27 27 28 28 29 29 29 29
15 15 15 14 14 13 13 12 12 11 11 10 10 10 11 11 12 12 12 13 13 14 15 15 17 18 19 20 20 22 23 24 25 26 26 27 27 27 28 28 28 29 29 29

GEFSNGP_500_meanwind_174.txt.gz
Wind_Speed
29 28 28 27 26 27 29 29 29 28 26 24 22 20 17 16 14 12 11 9 9 9 10 10 11 11 11 11 11 11 11 11 11 11 12 12 12 12 12 12 13 13 14 15
29 29 29 28 27 28 29 29 30 29 28 24 22 20 19 18 14 12 11 9 9 10 10 11 10 10 11 11 11 12 11 11 11 12 12 12 12 12 12 13 13 14 15 16
31 30 29 28 27 28 29 29 30 29 26 24 22 21 20 18 15 12 11 11 11 11 11 10 11 11 11 12 12 12 11 11 11 11 11 12 12 12 13 13 14 14 15 16
32 32 33 29 28 28 29 29 30 28 27 26 24 22 21 19 17 15 13 13 12 12 11 11 12 11 12 12 12 12 12 11 11 12 12 12 12 12 12 13 14 14 15 16
33 33 32 31 31 29 29 30 29 28 28 27 25 24 23 22 20 17 15 14 13 13 13 13 13 13 13 12 12 13 13 12 12 12 12 12 12 13 12 13 13 14 15 16
35 35 35 32 32 31 30 30 30 29 29 28 25 24 22 21 20 19 18 17 16 15 15 15 15 14 13 13 13 13 12 12 12 12 13 13 13 14 14 14 14 14 15 15
36 37 36 34 33 34 34 31 29 28 28 29 27 25 24 24 23 20 19 18 17 17 17 16 15 15 14 14 13 13 13 14 14 14 14 14 15 15 15 15 15 15 15 15
37 37 36 34 34 35 33 30 29 29 28 28 26 26 24 23 23 22 20 19 18 18 17 17 16 16 16 15 15 15 15 15 15 15 15 15 16 15 15 16 16 16 16 16
36 36 33 33 33 34 33 31 30 29 28 27 26 26 24 23 23 23 21 21 20 19 19 18 17 17 17 16 16 16 16 16 16 16 16 16 15 15 15 16 16 17 17 17
34 35 33 31 31 32 30 29 28 29 28 26 24 25 24 23 22 21 20 21 21 20 20 19 18 18 17 17 17 17 16 16 17 16 16 15 15 16 16 16 17 16 16 16
32 32 31 29 29 28 28 27 25 26 25 23 23 23 23 22 20 20 20 20 21 21 21 22 20 19 18 19 19 18 17 17 17 16 16 16 16 16 17 17 17 17 17 17
30 30 30 28 28 26 25 25 24 23 21 21 20 20 20 20 20 19 20 20 19 19 20 19 19 18 18 19 19 19 19 19 18 17 17 16 17 17 17 17 17 17 17 18
30 30 29 28 26 25 24 22 21 21 20 19 19 19 20 19 19 19 19 19 19 19 18 18 18 18 19 19 19 19 19 19 18 18 17 17 17 18 17 17 17 18 18 18
28 28 28 26 26 25 22 20 20 20 20 19 19 20 19 19 19 19 19 20 19 19 19 19 19 19 19 20 19 19 19 19 19 19 18 18 18 18 18 18 18 18 18 19
28 28 27 26 25 25 23 20 20 21 21 20 19 19 19 19 19 19 19 19 19 19 18 18 18 18 18 18 19 19 19 19 19 18 18 18 19 19 18 18 18 18 18 19
26 27 26 25 25 24 23 21 20 19 19 19 19 19 18 18 17 18 18 18 18 17 17 18 18 18 17 17 17 18 18 18 18 18 18 18 19 18 17 17 18 19 20 21
25 25 23 23 24 24 23 22 20 19 19 19 19 18 17 17 18 18 18 18 17 17 17 18 18 18 17 17 17 18 18 18 18 18 18 18 18 18 18 19 19 20 21 22
24 24 23 22 22 23 24 22 21 20 19 19 18 18 17 18 18 18 17 17 17 18 17 17 17 17 17 17 17 18 19 19 18 17 17 17 17 18 19 20 20 21 22 23
23 24 24 22 21 21 21 21 20 20 19 18 18 17 17 17 17 17 18 17 18 18 18 18 18 18 18 18 18 18 17 17 17 17 17 18 19 19 19 20 21 21 23 24
21 22 22 21 20 20 19 19 19 19 19 18 18 17 17 17 17 17 17 18 17 17 17 17 17 17 17 17 17 17 16 16 17 17 18 19 19 20 21 21 22 23 25 26
18 19 20 20 20 19 18 18 18 18 18 18 18 17 17 17 17 17 17 17 17 17 17 17 17 16 16 16 16 16 16 17 17 18 19 19 20 21 23 24 24 25 26 27
17 18 19 19 19 18 18 17 17 17 16 16 17 17 16 16 17 17 17 16 16 16 16 16 16 16 16 16 16 16 16 17 18 19 20 20 21 23 23 24 25 26 27 28
18 18 18 18 18 18 17 17 17 16 16 16 16 15 14 14 15 15 16 16 16 15 15 15 16 16 16 16 16 17 18 18 19 20 20 22 22 23 24 25 26 27 28 29
18 18 18 18 18 18 17 16 16 16 16 15 15 14 14 14 15 15 15 15 15 15 15 16 16 16 16 16 17 18 18 19 19 21 22 23 23 23 24 26 27 27 28 29
17 17 17 17 17 17 16 16 16 15 15 14 14 13 13 13 14 14 14 14 15 15 15 15 14 14 15 16 17 18 19 20 21 22 22 22 23 24 25 26 27 28 28 28
17 17 16 16 15 15 15 15 15 14 13 12 12 12 13 13 13 13 14 14 14 14 14 13 14 15 16 17 18 18 19 20 20 20 21 22 23 24 25 26 26 27 27 27
17 17 16 15 14 14 13 13 13 13 13 12 11 11 11 12 12 12 13 13 14 14 14 15 15 16 17 17 18 18 19 19 19 20 21 22 23 24 24 25 25 25 26 26